Regional Weather Roundup
Issued by NWS

Home | Current Version | Previous Version | Graphics & Text | Print | Product List | Glossary Off
Versions: 1 2 3 4 5 6 7 8 9 10 11 12 13 14 15 16 17 18 19 20 21 22 23 24 25 26 27 28 29 30 31 32 33 34 35 36 37 38 39 40 41 42 43 44 45 46 47 48 49 50

000
ASUS43 KDMX 262308
RWRIA

WEATHER ROUNDUP FOR IOWA
NATIONAL WEATHER SERVICE DES MOINES IA
600 PM CDT FRI AUG 26 2016

NOTE: "FAIR" INDICATES FEW OR NO CLOUDS BELOW 12,000 FEET WITH NO
SIGNIFICANT WEATHER AND/OR OBSTRUCTIONS TO VISIBILITY.

* - THESE STATIONS ARE NOT NWS STATIONS...THUS NOT UNDER NWS
QUALITY CONTROL.  THEY ALSO DO NOT REPORT WEATHER SUCH
AS PRECIPITATION OR FOG.

IAZ001>003-012>014-020>022-031>034-043>046-270000-
   NORTHWEST IOWA

CITY           SKY/WX    TMP DP  RH WIND       PRES   REMARKS
CARROLL *      CLOUDY    66  63  88 E7        30.08F
CHEROKEE *     CLOUDY    70  61  72 E6        30.10F
DENISON *      CLOUDY    66  61  82 NE6       30.06F HAZE
LE MARS *      CLOUDY    72  61  68 E6        30.10F
ORANGE CITY *  CLOUDY    70  61  73 E5        30.11F
SHELDON *      PTSUNNY   68  61  77 E7        30.10F
SIOUX CITY     CLOUDY    73  61  65 E7        30.07F
SPENCER        CLOUDY    69  59  70 E8        30.12F
STORM LAKE *   CLOUDY    68  61  77 E5        30.11F
$$

IAZ055>058-069>071-079>083-090>094-270000-
   SOUTHWEST IOWA

CITY           SKY/WX    TMP DP  RH WIND       PRES   REMARKS
ATLANTIC *     CLOUDY    68  64  88 NE7       30.06F
AUDUBON *      CLOUDY    66  63  88 NE8       30.08F
CLARINDA *       N/A     72  68  88 MISG      30.06S
COUNCIL BLFS * CLOUDY    68  64  88 NE7       30.05F
CRESTON *      CLOUDY    70  66  88 NE9       30.07S
HARLAN  *      CLOUDY    68  64  88 E8        30.10F
LAMONI         CLOUDY    74  69  85 NE7       30.04F
RED OAK *      CLOUDY    70  66  88 NE6       30.04F
SHENANDOAH *   CLOUDY    70 -38   1 NE7       30.03F
$$

IAZ047>049-059>061-072>074-084-270000-
   CENTRAL IOWA

CITY           SKY/WX    TMP DP  RH WIND       PRES   REMARKS
AMES           CLOUDY    67  65  93 NE12      30.09F
ANKENY *         N/A    N/A N/A N/A MISG        N/A
BOONE *        CLOUDY    66  63  88 NE10G17   30.08F
CHARITON *       N/A     73  66  78 MISG      30.05F
DES MOINES     CLOUDY    71  64  78 NE12      30.06F
GRINNELL*      CLOUDY    71  64  78 NE8       30.10F
KNOXVILLE *    LGT RAIN  72  64  78 NE7       30.06S
MARSHALLTOWN   CLOUDY    67  63  87 NE8       30.11F
NEWTON *       CLOUDY    70  66  88 NE13      30.08F
PERRY *        PTSUNNY   69  65  89 NE7       30.08F
$$

IAZ004>006-015-016-023>025-035-036-270000-
   NORTH CENTRAL IOWA

CITY           SKY/WX    TMP DP  RH WIND       PRES   REMARKS
ALGONA *       CLOUDY    68  61  77 E5        30.13F
ESTHERVILLE    CLOUDY    67  60  78 E3        30.13F
FORT DODGE *   PTSUNNY   66  61  82 E10       30.12F
MASON CITY     LGT RAIN  68  62  81 N5        30.15F
FOREST CITY *    N/A    N/A N/A N/A MISG        N/A
WEBSTER CITY * CLOUDY    66  64  94 E7        30.10F
IOWA FALLS *   LGT RAIN  66  62  86 NE6       30.14F
$$

IAZ007>011-017>019-026>030-037>042-050>054-066-270000-
   NORTHEAST IOWA

CITY           SKY/WX    TMP DP  RH WIND       PRES   REMARKS
CEDAR RAPIDS   CLOUDY    73  65  75 NE9       30.10S
CHARLES CITY * CLOUDY    68  61  77 CALM      30.15S
CLINTON *      CLOUDY    76  65  68 E6        30.11
DECORAH *      CLOUDY    68  59  73 CALM      30.13F
DUBUQUE        CLOUDY    70  61  73 NE7       30.13F
MONTICELLO *   CLOUDY    72  63  73 N5        30.11F
OELWEIN *      CLOUDY    66  63  88 NW5       30.16R
WATERLOO       LGT RAIN  66  61  84 N6        30.13R
$$

IAZ064-065-067-068-078-270000-
   EAST CENTRAL IOWA

CITY           SKY/WX    TMP DP  RH WIND       PRES   REMARKS
DAVENPORT      MOSUNNY   76  63  64 E9        30.10S
IOWA CITY      CLOUDY    75  63  66 NE8       30.10F
MT. PLEASANT * CLOUDY    79  68  69 NE7       30.07F HX  81
MUSCATINE *    CLOUDY    77  63  61 E8        30.08S
QUAD CITIES    CLOUDY    78  64  61 E8        30.07F HX  80
$$

IAZ062-063-075>077-085>089-095>099-270000-
   SOUTHEAST IOWA

CITY           SKY/WX    TMP DP  RH WIND       PRES   REMARKS
BURLINGTON     LGT RAIN  76  70  82 NE6       30.06S
FAIRFIELD *    PTSUNNY   77  64  65 E7        30.07S
FORT MADISON * LGT RAIN  75  72  88 CALM      30.06F
KEOKUK *       MOSUNNY   77  70  78 E7        30.03F
OSKALOOSA *    PTSUNNY   73  66  78 NE7       30.07F
CENTERVILLE *  PTSUNNY   73  68  83 CALM      30.06F
OTTUMWA        CLOUDY    76  65  68 E10       30.06F
WASHINGTON *   CLOUDY    75  66  73 NE9       30.09S
$$

ABBREVIATIONS USED IN REMARKS
   TC - TEMPERATURES IN CELSIUS
  WCI - WIND CHILL INDEX
   HX - HEAT INDEX
  VSB - VISIBILITY
$$





USA.gov is the U.S. government's official web portal to all federal, state and local government web resources and services.